Погода в Даманхуре

Египет     31°02′07″N   30°28′07″E
темп.,
°C
ветер,
м/с
пор.,
м/с
влажн.,
%
обл.,
%
осадки,
мм/ч
давл.,
гПа
погр.,
м
9 марта, вт
вт923:00+11в34850 0.0 101774
02:00+10вюв33850 0.0 101650
05:00+11вюв347798 0.0 101589
08:00+16вюв585177 0.0 1015283
11:00+27вюв571931 0.0 1014845
14:00+31юз341116 0.0 10131966
17:00+29ю471361 0.0 1011284
20:00+21юв341878 0.0 101166
10 марта, ср
ср1023:00+16св233225 0.0 101124
02:00+16юв452813 0.0 101069
05:00+18ююв45214 0.0 100988
08:00+24ю6121613 0.0 1010392
11:00+33юз91470 0.0 10101431
14:00+35з101460 0.0 10092028
17:00+23сз711350 0.0 1009527
20:00+16сз387016 0.0 1012205
11 марта, чт
чт1123:00+14зсз348867 0.0 1012107
02:00+13з239465 0.0 101277
05:00+14сз2894100 0.0 1013234
08:00+18зсз2473100 0.0 1014443
11:00+24зсз453696 0.0 1014968
14:00+26зсз682780 0.0 10121089
17:00+20сз6959100 0.0 1012772
20:00+15зсз41181100 0.0 1015489
12 марта, пт
пт1223:00+14зсз4118069 0.0 1016519
02:00+14зсз5127863 0.0 1015854
05:00+13зсз412770 0.0 1016439
08:00+16сз710540 0.0 10171113
11:00+20ссз89410 0.0 10181347
14:00+19ссз88380 0.0 10171264
17:00+16ссз68530 0.0 1018960
20:00+10ссз33750 0.0 101953
13 марта, сб
сб1323:00+9сз23780 0.0 102030
02:00+9сз12830 0.0 102022
05:00+8в12870 0.0 101922
08:00+13в24610 0.0 1020281
11:00+20св33310 0.0 10201103
14:00+25с54240 0.0 10171310
17:00+18ссв68490 0.0 1017565
20:00+12св49730 0.0 1018188